User: anonymous
Location: Hickory_Viewmont
(35.7830°N, 81.3170°W)
Time: 03:01:57
(UTC-04:00)
Language:

Okean-O - Orbit

View from above orbital plane
View from above orbital plane
View from above satellite
View from above satellite

Ground track
Ground track

The orbit data is extracted from the following two-line orbital elements,

1 25860U 99039A   14245.50126030  .00000417  00000-0  69076-4 0  3420
2 25860 098.0516 208.9466 0001751 120.7989 350.9040 14.75363320813554
Epoch (UTC): 02 September 2014 12:01:48
Eccentricity: 0.0001751
inclination: 98.0516°
perigee height: 643 km
apogee height: 645 km
right ascension of ascending node: 208.9466°
argument of perigee: 120.7989°
revolutions per day: 14.75363320
mean anomaly at epoch: 350.9040°
orbit number at epoch: 81355

The dashed part of the orbit path shows where the satellite is in the earth's shadow,  

DLR